CYGNUS NG-10

Last updated on Tue Feb 26 2019 00:02:08 GMT+0000 (Coordinated Universal Time)

1 43704U 18092A 19055.89210234 .00026036 00000-0 95990-4 0 9990 2 43704 51.6389 197.2550 0011727 300.9932 58.9921 15.87942133 15503

Satellite not in orbit